TimeEDT,TemperatureF,Dew PointF,Humidity,Sea Level PressureIn,VisibilityMPH,Wind Direction,Wind SpeedMPH,Gust SpeedMPH,PrecipitationIn,Events,Conditions,WindDirDegrees,DateUTC
12:54 AM,71.1,66.9,87,30.02,10.0,Calm,Calm,-,N/A,,Clear,0,2013-06-25 04:54:00
1:54 AM,73.0,66.0,79,30.00,10.0,Calm,Calm,-,N/A,,Clear,0,2013-06-25 05:54:00
2:54 AM,70.0,66.0,87,30.00,10.0,Calm,Calm,-,N/A,,Clear,0,2013-06-25 06:54:00
3:54 AM,69.1,64.9,87,29.98,10.0,South,3.5,-,N/A,,Clear,190,2013-06-25 07:54:00
4:54 AM,71.1,64.9,81,29.98,10.0,South,3.5,-,N/A,,Clear,190,2013-06-25 08:54:00
5:54 AM,70.0,64.9,84,29.99,10.0,Calm,Calm,-,N/A,,Clear,0,2013-06-25 09:54:00
6:54 AM,72.0,66.9,84,29.99,10.0,Calm,Calm,-,N/A,,Clear,0,2013-06-25 10:54:00
7:54 AM,75.9,68.0,76,29.99,10.0,SSE,3.5,-,N/A,,Clear,150,2013-06-25 11:54:00
8:54 AM,80.1,69.1,69,29.99,10.0,Calm,Calm,-,N/A,,Clear,0,2013-06-25 12:54:00
9:54 AM,84.0,70.0,63,29.99,10.0,WSW,8.1,-,N/A,,Clear,250,2013-06-25 13:54:00
10:54 AM,86.0,70.0,59,29.99,10.0,West,8.1,-,N/A,,Clear,270,2013-06-25 14:54:00
11:54 AM,88.0,69.1,53,29.98,10.0,WSW,10.4,-,N/A,,Clear,240,2013-06-25 15:54:00
12:54 PM,90.0,70.0,52,29.95,10.0,WSW,11.5,-,N/A,,Partly Cloudy,250,2013-06-25 16:54:00
1:54 PM,90.0,68.0,48,29.93,10.0,West,11.5,-,N/A,,Partly Cloudy,260,2013-06-25 17:54:00
2:54 PM,90.0,66.9,46,29.92,10.0,West,12.7,-,N/A,,Partly Cloudy,270,2013-06-25 18:54:00
3:46 PM,75.2,66.2,73,29.94,10.0,West,16.1,28.8,0.00,Rain-Thunderstorm,Light Thunderstorms and Rain,260,2013-06-25 19:46:00
3:54 PM,73.9,66.0,76,29.94,10.0,WSW,8.1,-,0.01,Rain-Thunderstorm,Light Thunderstorms and Rain,240,2013-06-25 19:54:00
3:57 PM,73.4,66.2,78,29.93,10.0,SW,6.9,-,0.00,Rain-Thunderstorm,Light Thunderstorms and Rain,230,2013-06-25 19:57:00
4:54 PM,75.0,69.1,82,29.91,10.0,ESE,3.5,-,0.01,,Clear,110,2013-06-25 20:54:00
5:54 PM,82.0,70.0,67,29.88,10.0,Calm,Calm,-,N/A,,Clear,0,2013-06-25 21:54:00
6:54 PM,82.9,71.1,67,29.87,10.0,Calm,Calm,-,N/A,,Clear,0,2013-06-25 22:54:00
7:54 PM,81.0,73.0,77,29.87,10.0,Calm,Calm,-,N/A,,Clear,0,2013-06-25 23:54:00
8:54 PM,80.1,71.1,74,29.87,10.0,SE,3.5,-,N/A,,Clear,140,2013-06-26 00:54:00
9:54 PM,79.0,71.1,77,29.86,10.0,SSE,4.6,-,N/A,,Partly Cloudy,150,2013-06-26 01:54:00
10:05 PM,78.8,68.0,69,29.89,10.0,WNW,27.6,34.5,0.00,Rain,Light Rain,290,2013-06-26 02:05:00
10:21 PM,73.4,64.4,73,29.90,10.0,West,16.1,33.4,0.00,Rain,Light Rain,280,2013-06-26 02:21:00
10:54 PM,72.0,64.9,78,29.90,10.0,West,5.8,18.4,0.00,Rain,Light Rain,280,2013-06-26 02:54:00
11:54 PM,71.1,64.9,81,29.89,10.0,Calm,Calm,-,0.00,,Clear,0,2013-06-26 03:54:00